Location: College Park
(38.9810°N, 76.9370°W)
Time: 23:11:04
(UTC-05:00)

Tiangong 1 - Pass Details

Date: 11 February 2018
Orbit: 246 x 267 km, 42.8° (Epoch: 23 February)

Event Time Altitude Azimuth Distance (km) Brightness Sun altitude
Exits shadow 06:11:39 20° 301° (WNW) 683 1.8 -10.7°
Maximum altitude 06:12:48 32° 353° (N) 470 1.3 -10.5°
Drops below altitude 10° 06:14:58 10° 61° (ENE) 1,057 4.1 -10.1°
Sets 06:16:59 0° 72° (ENE) 1,873 5.8 -9.7°
